Regional Weather Roundup
Issued by NWS

Home | Current Version | Previous Version | Graphics & Text | Print | Product List | Glossary On
Versions: 1 2 3 4 5 6 7 8 9 10 11 12 13 14 15 16 17 18 19 20 21 22 23 24 25 26 27 28 29 30 31 32 33 34 35 36 37 38 39 40 41 42 43 44 45 46 47 48 49 50
000
ASUS43 KLMK 310210
RWRKY
KENTUCKY REGIONAL WEATHER ROUNDUP
NATIONAL WEATHER SERVICE LOUISVILLE KY
1000 PM EDT TUE AUG 30 2016

NOTE "FAIR" INDICATES FEW OR NO CLOUDS BELOW 12,000 FEET
WITH NO SIGNIFICANT WEATHER AND/OR OBSTRUCTIONS TO VISIBILITY.

KYZ001>023-026-027-061>063-070>075-310300-
WESTERN AND SOUTH CENTRAL KENTUCKY

CITY           SKY/WX    TMP DP  RH WIND       PRES   REMARKS
PADUCAH        CLEAR     77  73  87 CALM      30.00R
HENDERSON      CLEAR     77  72  83 CALM      30.01R
OWENSBORO      CLEAR     84  73  69 NE3       30.03R HX  90
HOPKINSVILLE   CLEAR     80  73  78 N3        30.01R
BOWLING GREEN  CLEAR     82  73  74 CALM      30.02R
GLASGOW        CLEAR     75  75 100 N3        30.03R
$$

KYZ024-025-028>034-038-045-046-053-310300-
NORTH CENTRAL KENTUCKY

CITY           SKY/WX    TMP DP  RH WIND       PRES   REMARKS
LOUISVILLE/SDF PTCLDY    85  68  56 N7        30.03R
LOUISVILLE/LOU CLEAR     83  69  62 N5        30.04R
FORT KNOX      CLEAR     75  71  89 N3        30.03R
$$

KYZ035>037-039>044-047>052-055>060-089>105-310300-
NORTHEAST KENTUCKY

CITY           SKY/WX    TMP DP  RH WIND       PRES   REMARKS
LEXINGTON      CLEAR     77  70  79 CALM      30.07R
COVINGTON      PTCLDY    76  65  68 CALM      30.07R
FRANKFORT      CLEAR     77  70  79 N3        30.05R
$$

KYZ054-064>069-076>088-106>120-310300-
SOUTHEAST KENTUCKY

CITY           SKY/WX    TMP DP  RH WIND       PRES   REMARKS
JACKSON        CLEAR     76  71  85 CALM      30.08R
LONDON         CLEAR     75  68  78 CALM      30.07R
SOMERSET       CLEAR     73  73 100 CALM      30.06S
MIDDLESBORO    CLEAR     73  70  91 CALM      30.07S
MONTICELLO     CLEAR    N/A N/A N/A N10       30.07R
$$





USA.gov is the U.S. government's official web portal to all federal, state and local government web resources and services.